Location: Downe
(51.3167°N, 0.0500°E)
Time: 20:10:11
(UTC+00:00)

ATLAS CENTAUR R/B - Pass Details

Date: 17 November 2019
Orbit: 457 x 691 km, 64.7° (Epoch: 30 November)

Event Time Altitude Azimuth Distance (km) Brightness Sun altitude
Rises 06:26:25 0° 228° (SW) 3,054 4.8 -8.4°
Reaches altitude 10° 06:28:47 10° 230° (SW) 2,134 4.0 -8.1°
Maximum altitude 06:33:40 70° 315° (NW) 720 1.7 -7.3°
Drops below altitude 10° 06:38:23 10° 39° (NE) 2,062 4.5 -6.7°
Sets 06:40:38 0° 42° (NE) 2,943 5.3 -6.3°
